TimeEDT,TemperatureF,Dew PointF,Humidity,Sea Level PressureIn,VisibilityMPH,Wind Direction,Wind SpeedMPH,Gust SpeedMPH,PrecipitationIn,Events,Conditions,WindDirDegrees,DateUTC
12:53 AM,36.0,24.1,62,30.10,10.0,Calm,Calm,-,N/A,,Clear,0,2013-03-31 04:53:00
1:53 AM,37.9,23.0,55,30.09,10.0,Calm,Calm,-,N/A,,Clear,0,2013-03-31 05:53:00
2:53 AM,39.0,24.1,55,30.06,10.0,Calm,Calm,-,N/A,,Clear,0,2013-03-31 06:53:00
3:53 AM,37.9,26.1,62,30.03,10.0,Calm,Calm,-,N/A,,Clear,0,2013-03-31 07:53:00
4:53 AM,37.9,27.0,65,30.01,10.0,Calm,Calm,-,N/A,,Clear,0,2013-03-31 08:53:00
5:53 AM,37.0,28.0,70,29.99,10.0,NNW,3.5,-,N/A,,Clear,330,2013-03-31 09:53:00
6:53 AM,39.0,28.0,65,29.98,10.0,Calm,Calm,-,N/A,,Partly Cloudy,0,2013-03-31 10:53:00
7:53 AM,41.0,30.0,65,29.98,10.0,Calm,Calm,-,N/A,,Overcast,0,2013-03-31 11:53:00
8:53 AM,44.1,30.9,60,29.97,10.0,Calm,Calm,-,N/A,,Overcast,0,2013-03-31 12:53:00
9:53 AM,44.1,37.0,76,29.94,6.0,NE,3.5,-,0.02,Rain,Light Rain,50,2013-03-31 13:53:00
10:53 AM,44.1,37.9,79,29.93,6.0,Calm,Calm,-,0.03,Rain,Light Rain,0,2013-03-31 14:53:00
11:53 AM,44.1,39.0,82,29.92,3.0,Calm,Calm,-,0.06,Rain,Rain,0,2013-03-31 15:53:00
12:23 PM,42.8,39.2,87,29.89,3.0,Calm,Calm,-,0.03,Rain,Light Rain,0,2013-03-31 16:23:00
12:32 PM,42.8,39.2,87,29.88,3.0,Variable,4.6,-,0.05,Rain,Light Rain,0,2013-03-31 16:32:00
12:53 PM,43.0,39.0,86,29.88,4.0,Calm,Calm,-,0.07,Rain,Light Rain,0,2013-03-31 16:53:00
1:00 PM,42.8,39.2,87,29.86,4.0,East,4.6,-,0.00,Rain,Light Rain,100,2013-03-31 17:00:00
1:53 PM,44.1,41.0,89,29.83,5.0,Calm,Calm,-,0.00,Rain,Light Rain,0,2013-03-31 17:53:00
2:53 PM,45.0,42.1,90,29.80,3.0,ESE,3.5,-,0.02,Rain,Light Rain,120,2013-03-31 18:53:00
3:06 PM,44.6,42.8,93,29.79,4.0,SE,3.5,-,0.00,,Overcast,130,2013-03-31 19:06:00
3:53 PM,46.0,43.0,89,29.79,3.0,Calm,Calm,-,0.00,,Overcast,0,2013-03-31 19:53:00
4:50 PM,46.4,42.8,87,29.76,5.0,Calm,Calm,-,N/A,,Overcast,0,2013-03-31 20:50:00
4:53 PM,46.9,43.0,86,29.77,5.0,Calm,Calm,-,N/A,,Overcast,0,2013-03-31 20:53:00
5:08 PM,46.4,42.8,87,29.76,6.0,Calm,Calm,-,N/A,,Overcast,0,2013-03-31 21:08:00
5:53 PM,48.0,44.1,86,29.76,5.0,Calm,Calm,-,N/A,,Overcast,0,2013-03-31 21:53:00
6:09 PM,48.2,44.6,87,29.75,6.0,Calm,Calm,-,N/A,,Overcast,0,2013-03-31 22:09:00
6:53 PM,48.0,44.1,86,29.76,6.0,Calm,Calm,-,N/A,,Overcast,0,2013-03-31 22:53:00
7:53 PM,46.9,44.1,90,29.77,5.0,Calm,Calm,-,0.00,Rain,Light Rain,0,2013-03-31 23:53:00
8:53 PM,48.0,44.1,86,29.78,6.0,SW,4.6,-,0.00,,Overcast,220,2013-04-01 00:53:00
9:53 PM,48.9,44.1,83,29.79,10.0,SSW,3.5,-,N/A,,Overcast,200,2013-04-01 01:53:00
10:16 PM,44.6,42.8,93,29.78,2.5,South,3.5,-,N/A,,Scattered Clouds,170,2013-04-01 02:16:00
10:35 PM,44.6,42.8,93,29.78,4.0,Calm,Calm,-,N/A,,Mostly Cloudy,0,2013-04-01 02:35:00
10:53 PM,45.0,43.0,93,29.79,4.0,Calm,Calm,-,N/A,,Overcast,0,2013-04-01 02:53:00
11:53 PM,46.0,43.0,89,29.78,6.0,South,4.6,-,N/A,,Overcast,180,2013-04-01 03:53:00